Location: Lafig�re
(44.4503°N, 4.0357°E)
Time: 03:15:44
(UTC+00:00)

Transit 4A - Pass Details

Date: 25 January 2021
Orbit: 866 x 978 km, 66.8° (Epoch: 02 March)

Event Time Altitude Azimuth Distance (km) Brightness Sun altitude
Rises 00:52:42 0° 331° (NNW) 3,652 - -61.9°
Reaches altitude 10° 00:56:41 10° 354° (N) 2,683 - -61.5°
Maximum altitude 00:59:59 15° 27° (NNE) 2,346 - -61.2°
Drops below altitude 10° 01:03:15 10° 59° (ENE) 2,638 - -60.9°
Sets 01:07:05 0° 83° (E) 3,552 - -60.5°
